📊 Raw Sensor Data
Showing records 52326 to 52350 of 85,279 total
| ID | Distance (ft) | Battery V | Battery A | Int Temp (°F) | Int Humid (%) | Ext Temp (°F) | Solar V | RSSI | SNR | Time Stamp |
|---|---|---|---|---|---|---|---|---|---|---|
| 32966 | 13.9 | 3.79 | -5 | 43 | 38 | 48 | 0.00 | -77 | 8 | 02/20/2025 10:45 PM |
| 32965 | 13.9 | 3.79 | -5 | 43 | 38 | 45 | 0.00 | -77 | 8 | 02/20/2025 10:30 PM |
| 32964 | 13.9 | 3.85 | -5 | 44 | 38 | 45 | 0.00 | -78 | 8 | 02/20/2025 10:15 PM |
| 32963 | 13.9 | 3.79 | -5 | 44 | 39 | 46 | 0.00 | -77 | 8 | 02/20/2025 10:00 PM |
| 32962 | 13.8 | 3.85 | -5 | 44 | 39 | 46 | 0.00 | -77 | 9 | 02/20/2025 09:45 PM |
| 32961 | 13.8 | 3.80 | -5 | 44 | 40 | 45 | 0.00 | -77 | 8 | 02/20/2025 09:30 PM |
| 32960 | 13.9 | 3.80 | -5 | 46 | 39 | 46 | 0.00 | -77 | 8 | 02/20/2025 09:15 PM |
| 32959 | 13.9 | 3.85 | -5 | 47 | 39 | 49 | 0.00 | -76 | 8 | 02/20/2025 09:00 PM |
| 32958 | 13.9 | 3.80 | -5 | 49 | 39 | 51 | 0.00 | -76 | 8 | 02/20/2025 08:45 PM |
| 32957 | 13.9 | 3.85 | -5 | 50 | 39 | 52 | 0.00 | -76 | 8 | 02/20/2025 08:30 PM |
| 32956 | 13.9 | 3.80 | -5 | 51 | 38 | 53 | 0.00 | -76 | 8 | 02/20/2025 08:15 PM |
| 32955 | 13.8 | 3.85 | -5 | 51 | 38 | 55 | 0.00 | -75 | 7 | 02/20/2025 08:00 PM |
| 32954 | 13.9 | 3.80 | -5 | 51 | 39 | 54 | 0.10 | -76 | 8 | 02/20/2025 07:45 PM |
| 32953 | 13.9 | 3.80 | -5 | 52 | 39 | 54 | 0.00 | -75 | 8 | 02/20/2025 07:30 PM |
| 32952 | 13.9 | 3.85 | -5 | 52 | 39 | 56 | 0.00 | -75 | 7 | 02/20/2025 07:15 PM |
| 32951 | 13.8 | 3.80 | -5 | 52 | 40 | 57 | 0.00 | -74 | 8 | 02/20/2025 07:00 PM |
| 32950 | 13.8 | 3.80 | -5 | 52 | 41 | 57 | 0.00 | -75 | 7 | 02/20/2025 06:45 PM |
| 32949 | 13.8 | 3.85 | -5 | 52 | 42 | 56 | 0.10 | -74 | 9 | 02/20/2025 06:30 PM |
| 32948 | 13.8 | 3.80 | -5 | 54 | 42 | 55 | 0.00 | -74 | 8 | 02/20/2025 06:15 PM |
| 32947 | 13.8 | 3.80 | -9 | 57 | 41 | 56 | 1.10 | -74 | 8 | 02/20/2025 06:00 PM |
| 32946 | 13.9 | 3.87 | 0 | 60 | 40 | 58 | 4.50 | -74 | 8 | 02/20/2025 05:45 PM |
| 32945 | 13.9 | 3.91 | 8 | 61 | 40 | 60 | 4.50 | -74 | 7 | 02/20/2025 05:30 PM |
| 32944 | 13.9 | 3.84 | -13 | 61 | 42 | 60 | 4.50 | -74 | 8 | 02/20/2025 05:15 PM |
| 32943 | 13.9 | 3.91 | 6 | 63 | 41 | 61 | 4.50 | -73 | 8 | 02/20/2025 05:00 PM |
| 32942 | 13.9 | 3.88 | 0 | 66 | 40 | 62 | 5.10 | -73 | 7 | 02/20/2025 04:45 PM |